Location: Clanezzo
(45.7500°N, 9.6000°E)
Time: 14:05:59
(UTC+00:00)

BREEZE-M DEB (TANK) - Pass Details

Date: 12 May 2021
Orbit: 293 x 15375 km, 49.4° (Epoch: 19 June)

Event Time Altitude Azimuth Distance (km) Brightness Sun altitude
Rises 19:47:22 0° 297° (WNW) 7,454 10.4 -10.2°
Reaches altitude 10° 19:54:26 10° 294° (WNW) 4,539 8.8 -11.1°
Maximum altitude 20:03:04 48° 224° (SW) 959 4.0 -12.2°
Enters shadow 20:05:18 18° 154° (SSE) 1,285 4.1 -12.5°
